Darstellungsparameter: Aktuell verwendete Einstellungen:
Skalierung der Graphiken ... ?
xyx+y,   Skalierungsfaktor:      Skalierung: Modus: x, Faktor: 1
Darstellungszeitraum ... ?
Vom - - bis: - -   Zeitraum: 31.12.2019 - 31.12.2019
Min/Max/Avg-Anzeige ... ?
Zeige MMA aktuell
Zeige MMA Monat
Zeige MMA alles
Zeige --A aktuell
Zeige --A Monat
Zeige --A alles
Keine MMA-Anzeige
MMA:
Average (ber die Originaldaten)
MMA-Basis: 31.12.2019 - 31.12.2019
Quicknavigation für Darstellung... ?
Tage:      1T, 2T, 3T, 5T -1T -2T -3T -5T +1T +2T +3T +5T
Wochen: 1W, 2W, 3W -1W -2W -3W +1W +2W +3W
Monate: 1M, 3M, 6M -1M -3M -6M +1M +3M +6M
Jahre:    1J, 3J, 5J, 10J -1J -3J -5J -10J +1J +3J +5J +10J
Nutze für die Darstellung ... ?
Originaldaten oder Mittelwerte auf ...
Stundenbasis Tagesbasis Wochenbasis
Monatsbasis Jahresbasis      Datenbasis: Original-Daten
Darstellen als:
Statistik (Auto) Statistik J:M      Darstellung:
Zur Graphik,    zurück zur Übersicht aller Sensoren.
 
Tabellarische Datenbersicht: ?
 
Sensor: Nr:Datum:Temp:Feuchte:
Aussen-T/F 1 31-12-2019 00:03:17 -1.2 C 32 %
2 31-12-2019 00:13:18 -1.4 C 34 %
3 31-12-2019 00:23:17 -1.6 C 36 %
4 31-12-2019 00:33:18 -1.2 C 35 %
5 31-12-2019 00:43:18 -1.5 C 35 %
6 31-12-2019 00:53:17 -1.5 C 36 %
7 31-12-2019 01:03:17 -1.5 C 36 %
8 31-12-2019 01:13:17 -0.8 C 34 %
9 31-12-2019 01:23:18 -1.3 C 34 %
10 31-12-2019 01:33:17 -1.6 C 37 %
11 31-12-2019 01:43:17 -2 C 37 %
12 31-12-2019 01:53:17 -2.3 C 38 %
13 31-12-2019 02:03:17 -2.5 C 40 %
14 31-12-2019 02:13:17 -2.7 C 40 %
15 31-12-2019 02:23:18 -2.8 C 41 %
16 31-12-2019 02:33:17 -3 C 41 %
17 31-12-2019 02:43:17 -2.9 C 43 %
18 31-12-2019 02:53:17 -2 C 45 %
19 31-12-2019 03:03:17 -1.7 C 42 %
20 31-12-2019 03:13:18 -2 C 40 %
21 31-12-2019 03:23:17 -2.4 C 40 %
22 31-12-2019 03:33:18 -2.5 C 41 %
23 31-12-2019 03:43:18 -2.9 C 41 %
24 31-12-2019 03:53:17 -2.8 C 42 %
25 31-12-2019 04:03:17 -2.6 C 43 %
Sensor: Nr:Datum:Temp:Feuchte:
Aussen-T/F 26 31-12-2019 04:13:17 -3.1 C 42 %
27 31-12-2019 04:23:17 -3.2 C 42 %
28 31-12-2019 04:33:17 -3.3 C 42 %
29 31-12-2019 04:43:18 -3.3 C 42 %
30 31-12-2019 04:53:17 -3.2 C 43 %
31 31-12-2019 05:03:17 -3.3 C 42 %
32 31-12-2019 05:13:17 -3.6 C 42 %
33 31-12-2019 05:23:17 -3.4 C 43 %
34 31-12-2019 05:33:17 -3.1 C 44 %
35 31-12-2019 05:43:17 -3 C 44 %
36 31-12-2019 05:53:17 -2.9 C 44 %
37 31-12-2019 06:03:17 -3.1 C 43 %
38 31-12-2019 06:13:17 -3.3 C 43 %
39 31-12-2019 06:23:17 -3.2 C 43 %
40 31-12-2019 06:33:17 -3.3 C 43 %
41 31-12-2019 06:43:17 -3.4 C 43 %
42 31-12-2019 06:53:18 -3.2 C 44 %
43 31-12-2019 07:03:17 -3.2 C 44 %
44 31-12-2019 07:13:17 -3 C 44 %
45 31-12-2019 07:23:17 -3.1 C 44 %
46 31-12-2019 07:33:17 -3 C 44 %
47 31-12-2019 07:43:17 -2.6 C 45 %
48 31-12-2019 07:53:18 -2.1 C 45 %
49 31-12-2019 08:03:17 -2 C 45 %
50 31-12-2019 08:13:17 -2 C 45 %
Sensor: Nr:Datum:Temp:Feuchte:
Aussen-T/F 51 31-12-2019 08:23:17 -1.3 C 45 %
52 31-12-2019 08:33:17 -1 C 44 %
53 31-12-2019 08:43:17 -1 C 43 %
54 31-12-2019 08:53:17 -1.1 C 42 %
55 31-12-2019 09:03:17 -1 C 43 %
56 31-12-2019 09:13:17 -0.9 C 44 %
57 31-12-2019 09:23:17 -1.1 C 42 %
58 31-12-2019 09:33:17 -1.1 C 42 %
59 31-12-2019 09:43:17 -1.1 C 42 %
60 31-12-2019 09:53:17 -0.9 C 43 %
61 31-12-2019 10:03:17 -0.6 C 44 %
62 31-12-2019 10:13:17 -0.2 C 43 %
63 31-12-2019 10:23:17 0.1 C 41 %
64 31-12-2019 10:33:17 0.3 C 40 %
65 31-12-2019 10:43:17 0.3 C 38 %
66 31-12-2019 10:53:18 0.5 C 40 %
67 31-12-2019 11:03:17 0.8 C 41 %
68 31-12-2019 11:13:17 0.7 C 41 %
69 31-12-2019 11:23:17 1.2 C 40 %
70 31-12-2019 11:33:17 1.1 C 38 %
71 31-12-2019 11:43:17 1.5 C 40 %
72 31-12-2019 11:53:17 1.5 C 40 %
73 31-12-2019 12:03:18 1.8 C 31 %
74 31-12-2019 12:13:18 2.4 C 35 %
75 31-12-2019 12:23:17 2.6 C 33 %
Sensor: Nr:Datum:Temp:Feuchte:
Aussen-T/F 76 31-12-2019 12:33:18 2.4 C 32 %
77 31-12-2019 12:43:18 2.8 C 30 %
78 31-12-2019 12:53:17 2.3 C 29 %
79 31-12-2019 13:03:18 2.4 C 28 %
80 31-12-2019 13:13:18 2.4 C 27 %
81 31-12-2019 13:23:17 2.8 C 27 %
82 31-12-2019 13:33:17 2.8 C 26 %
83 31-12-2019 13:43:17 3.3 C 26 %
84 31-12-2019 13:53:17 2.9 C 26 %
85 31-12-2019 14:03:18 2.7 C 27 %
86 31-12-2019 14:13:18 2.9 C 27 %
87 31-12-2019 14:23:17 3.1 C 26 %
88 31-12-2019 14:33:17 3.4 C 26 %
89 31-12-2019 14:43:17 3.2 C 26 %
90 31-12-2019 14:53:17 3 C 26 %
91 31-12-2019 15:03:17 2.8 C 27 %
92 31-12-2019 15:13:17 2.9 C 27 %
93 31-12-2019 15:23:18 3 C 27 %
94 31-12-2019 15:33:17 3 C 27 %
95 31-12-2019 15:43:17 2.9 C 28 %
96 31-12-2019 15:53:17 2.7 C 29 %
97 31-12-2019 16:03:17 2.1 C 30 %
98 31-12-2019 16:13:17 0.9 C 35 %
99 31-12-2019 16:23:18 0.6 C 38 %
100 31-12-2019 16:33:17 0.3 C 40 %
Sensor: Nr:Datum:Temp:Feuchte:
Aussen-T/F 101 31-12-2019 16:43:17 0.2 C 39 %
102 31-12-2019 16:53:18 0.2 C 40 %
103 31-12-2019 17:03:17 -0.1 C 41 %
104 31-12-2019 17:13:17 -0.4 C 41 %
105 31-12-2019 17:23:17 -0.3 C 40 %
106 31-12-2019 17:33:17 -0.3 C 41 %
107 31-12-2019 17:43:17 -0.6 C 43 %
108 31-12-2019 17:53:18 -0.7 C 43 %
109 31-12-2019 18:03:17 -1.1 C 43 %
110 31-12-2019 18:13:17 -1.2 C 45 %
111 31-12-2019 18:23:17 -0.9 C 45 %
112 31-12-2019 18:33:17 -0.8 C 45 %
113 31-12-2019 18:43:17 -0.4 C 46 %
114 31-12-2019 18:53:18 -0.4 C 46 %
115 31-12-2019 19:03:17 -0.3 C 45 %
116 31-12-2019 19:13:17 -0.1 C 46 %
117 31-12-2019 19:23:18 0 C 45 %
118 31-12-2019 19:33:17 0.1 C 45 %
119 31-12-2019 19:43:17 0.2 C 45 %
120 31-12-2019 19:53:17 0.4 C 45 %
121 31-12-2019 20:03:18 0.5 C 45 %
122 31-12-2019 20:13:18 0.5 C 45 %
123 31-12-2019 20:23:17 0.4 C 45 %
124 31-12-2019 20:33:17 0.4 C 45 %
125 31-12-2019 20:43:17 0.3 C 43 %
Sensor: Nr:Datum:Temp:Feuchte:
Aussen-T/F 126 31-12-2019 20:53:17 0.2 C 43 %
127 31-12-2019 21:03:17 0.2 C 43 %
128 31-12-2019 21:13:17 0.4 C 44 %
129 31-12-2019 21:23:18 0.4 C 44 %
130 31-12-2019 21:33:17 0.5 C 44 %
131 31-12-2019 21:43:17 0.6 C 43 %
132 31-12-2019 21:53:17 0.5 C 43 %
133 31-12-2019 22:03:17 0.6 C 42 %
134 31-12-2019 22:13:17 0.5 C 42 %
135 31-12-2019 22:23:18 0.2 C 41 %
136 31-12-2019 22:33:17 0 C 41 %
137 31-12-2019 22:43:17 -0.2 C 42 %
138 31-12-2019 22:53:17 -0.4 C 43 %
139 31-12-2019 23:03:17 -0.3 C 44 %
140 31-12-2019 23:13:17 -0.1 C 45 %
141 31-12-2019 23:23:18 0 C 45 %
142 31-12-2019 23:33:17 0 C 45 %
143 31-12-2019 23:43:17 0.4 C 45 %
144 31-12-2019 23:53:18 0.3 C 45 %
Sensor: Nr:Datum:Temp:Feuchte:
G-T/H 1 31-12-2019 00:03:17 7.2 C 69 %
2 31-12-2019 00:13:18 7.1 C 69 %
3 31-12-2019 00:23:17 7.1 C 69 %
4 31-12-2019 00:33:18 7.1 C 69 %
5 31-12-2019 00:43:18 7.1 C 69 %
6 31-12-2019 00:53:17 7.1 C 69 %
7 31-12-2019 01:03:17 7.1 C 69 %
8 31-12-2019 01:13:17 7.1 C 69 %
9 31-12-2019 01:23:18 7 C 69 %
10 31-12-2019 01:33:17 7 C 69 %
11 31-12-2019 01:43:17 7 C 69 %
12 31-12-2019 01:53:17 7 C 69 %
13 31-12-2019 02:03:17 7 C 69 %
14 31-12-2019 02:13:17 7 C 69 %
15 31-12-2019 02:23:18 7 C 69 %
16 31-12-2019 02:33:17 6.9 C 70 %
17 31-12-2019 02:43:17 6.9 C 70 %
18 31-12-2019 02:53:17 6.9 C 70 %
19 31-12-2019 03:03:17 6.9 C 70 %
20 31-12-2019 03:13:18 6.9 C 70 %
21 31-12-2019 03:23:17 6.9 C 70 %
22 31-12-2019 03:33:18 6.9 C 70 %
23 31-12-2019 03:43:18 6.8 C 70 %
24 31-12-2019 03:53:17 6.8 C 70 %
25 31-12-2019 04:03:17 6.8 C 70 %
Sensor: Nr:Datum:Temp:Feuchte:
G-T/H 26 31-12-2019 04:13:17 6.9 C 70 %
27 31-12-2019 04:23:17 7 C 69 %
28 31-12-2019 04:33:17 7 C 69 %
29 31-12-2019 04:43:18 7 C 69 %
30 31-12-2019 04:53:17 7 C 69 %
31 31-12-2019 05:03:17 7 C 69 %
32 31-12-2019 05:13:17 6.9 C 69 %
33 31-12-2019 05:23:17 6.9 C 69 %
34 31-12-2019 05:33:17 6.9 C 69 %
35 31-12-2019 05:43:17 6.8 C 69 %
36 31-12-2019 05:53:17 6.8 C 70 %
37 31-12-2019 06:03:17 6.8 C 70 %
38 31-12-2019 06:13:17 6.8 C 70 %
39 31-12-2019 06:23:17 6.8 C 70 %
40 31-12-2019 06:33:17 6.8 C 70 %
41 31-12-2019 06:43:17 6.8 C 70 %
42 31-12-2019 06:53:18 6.8 C 70 %
43 31-12-2019 07:03:17 6.7 C 70 %
44 31-12-2019 07:13:17 6.7 C 70 %
45 31-12-2019 07:23:17 6.7 C 70 %
46 31-12-2019 07:33:17 6.7 C 70 %
47 31-12-2019 07:43:17 6.7 C 70 %
48 31-12-2019 07:53:18 6.7 C 70 %
49 31-12-2019 08:03:17 6.7 C 70 %
50 31-12-2019 08:13:17 6.7 C 70 %
Sensor: Nr:Datum:Temp:Feuchte:
G-T/H 51 31-12-2019 08:23:17 6.7 C 70 %
52 31-12-2019 08:33:17 6.7 C 70 %
53 31-12-2019 08:43:17 6.6 C 70 %
54 31-12-2019 08:53:17 6.9 C 70 %
55 31-12-2019 09:03:17 7.2 C 69 %
56 31-12-2019 09:13:17 7.3 C 69 %
57 31-12-2019 09:23:17 7.3 C 69 %
58 31-12-2019 09:33:17 7.3 C 68 %
59 31-12-2019 09:43:17 7.3 C 68 %
60 31-12-2019 09:53:17 7.2 C 68 %
61 31-12-2019 10:03:17 7.2 C 68 %
62 31-12-2019 10:13:17 7.1 C 68 %
63 31-12-2019 10:23:17 7.1 C 69 %
64 31-12-2019 10:33:17 7.1 C 69 %
65 31-12-2019 10:43:17 6.9 C 69 %
66 31-12-2019 10:53:18 6.9 C 69 %
67 31-12-2019 11:03:17 6.9 C 69 %
68 31-12-2019 11:13:17 6.9 C 69 %
69 31-12-2019 11:23:17 6.9 C 69 %
70 31-12-2019 11:33:17 6.9 C 70 %
71 31-12-2019 11:43:17 6.9 C 70 %
72 31-12-2019 11:53:17 6.9 C 70 %
73 31-12-2019 12:03:18 6.9 C 70 %
74 31-12-2019 12:13:18 6.9 C 70 %
75 31-12-2019 12:23:17 6.9 C 70 %
Sensor: Nr:Datum:Temp:Feuchte:
G-T/H 76 31-12-2019 12:33:18 6.9 C 70 %
77 31-12-2019 12:43:18 6.9 C 70 %
78 31-12-2019 12:53:17 6.9 C 70 %
79 31-12-2019 13:03:18 6.9 C 70 %
80 31-12-2019 13:13:18 6.8 C 70 %
81 31-12-2019 13:23:17 6.8 C 71 %
82 31-12-2019 13:33:17 6.9 C 71 %
83 31-12-2019 13:43:17 6.9 C 71 %
84 31-12-2019 13:53:17 6.9 C 71 %
85 31-12-2019 14:03:18 6.9 C 71 %
86 31-12-2019 14:13:18 6.9 C 71 %
87 31-12-2019 14:23:17 6.8 C 71 %
88 31-12-2019 14:33:17 6.8 C 71 %
89 31-12-2019 14:43:17 6.8 C 71 %
90 31-12-2019 14:53:17 6.8 C 71 %
91 31-12-2019 15:03:17 6.9 C 71 %
92 31-12-2019 15:13:17 6.8 C 71 %
93 31-12-2019 15:23:18 6.9 C 71 %
94 31-12-2019 15:33:17 6.9 C 71 %
95 31-12-2019 15:43:17 6.9 C 71 %
96 31-12-2019 15:53:17 6.9 C 71 %
97 31-12-2019 16:03:17 6.9 C 71 %
98 31-12-2019 16:13:17 6.9 C 71 %
99 31-12-2019 16:23:18 6.8 C 71 %
100 31-12-2019 16:33:17 6.9 C 71 %
Sensor: Nr:Datum:Temp:Feuchte:
G-T/H 101 31-12-2019 16:43:17 6.9 C 71 %
102 31-12-2019 16:53:18 6.9 C 71 %
103 31-12-2019 17:03:17 6.9 C 71 %
104 31-12-2019 17:13:17 6.9 C 71 %
105 31-12-2019 17:23:17 6.8 C 71 %
106 31-12-2019 17:33:17 6.9 C 71 %
107 31-12-2019 17:43:17 6.8 C 71 %
108 31-12-2019 17:53:18 6.8 C 71 %
109 31-12-2019 18:03:17 6.7 C 71 %
110 31-12-2019 18:13:17 6.4 C 69 %
111 31-12-2019 18:23:17 6.7 C 69 %
112 31-12-2019 18:33:17 7.1 C 69 %
113 31-12-2019 18:43:17 7.2 C 69 %
114 31-12-2019 18:53:18 7.2 C 69 %
115 31-12-2019 19:03:17 7.2 C 69 %
116 31-12-2019 19:13:17 7.2 C 69 %
117 31-12-2019 19:23:18 7.1 C 69 %
118 31-12-2019 19:33:17 7.1 C 69 %
119 31-12-2019 19:43:17 7.1 C 69 %
120 31-12-2019 19:53:17 7.1 C 70 %
121 31-12-2019 20:03:18 7.1 C 70 %
122 31-12-2019 20:13:18 7 C 70 %
123 31-12-2019 20:23:17 7 C 70 %
124 31-12-2019 20:33:17 7 C 70 %
125 31-12-2019 20:43:17 7 C 70 %
Sensor: Nr:Datum:Temp:Feuchte:
G-T/H 126 31-12-2019 20:53:17 7 C 70 %
127 31-12-2019 21:03:17 7 C 70 %
128 31-12-2019 21:13:17 7 C 70 %
129 31-12-2019 21:23:18 7 C 70 %
130 31-12-2019 21:33:17 7 C 70 %
131 31-12-2019 21:43:17 7 C 71 %
132 31-12-2019 21:53:17 7 C 71 %
133 31-12-2019 22:03:17 7 C 71 %
134 31-12-2019 22:13:17 7 C 71 %
135 31-12-2019 22:23:18 7 C 71 %
136 31-12-2019 22:33:17 7 C 71 %
137 31-12-2019 22:43:17 7 C 71 %
138 31-12-2019 22:53:17 6.9 C 72 %
139 31-12-2019 23:03:17 6.9 C 72 %
140 31-12-2019 23:13:17 6.9 C 72 %
141 31-12-2019 23:23:18 6.9 C 72 %
142 31-12-2019 23:33:17 6.9 C 72 %
143 31-12-2019 23:43:17 6.9 C 72 %
144 31-12-2019 23:53:18 6.9 C 72 %

Legende:
   Min
   Max


Maximal/Minimal-Werte vom 31.12.2019 - 31.12.2019

Sensor Min Max Avg
Temp
(Aussen-T/F)
-3.6 °C
31-12-2019  05:13:17
3.4 °C
31-12-2019  14:33:17
-0.42 °C
Feuchte
(Aussen-T/F)
26 %
31-12-2019  13:33:17
46 %
31-12-2019  18:43:17
39.56 %
Temp
(G-T/H)
6.4 °C
31-12-2019  18:13:17
7.3 °C
31-12-2019  09:13:17
6.93 °C
Feuchte
(G-T/H)
68 %
31-12-2019  09:33:17
72 %
31-12-2019  22:53:17
69.97 %

Die Daten stammen von einer Davis Vantage Pro 2 Wetter-Station und werden unter Linux mit der Software wview2wettercgi und aufbereitet. Alle Angaben erfolgen ohne Gewähr für ihre Vollständigkeit oder Richtigkeit.
Kontakt: Rainer Krienke krienke@uni-koblenz.de . Meine Webseiten an der Uni Koblenz oder privat.
Version: $Revision: 0.78 $